Ralph M Calhoun Memorial Airport

Jump to: basic info | weather | runways | comments

Related pages: nearby airports | nearby navaids | notams | map

Basic information (top)

Codes: TAL PATA
Location: lon 65.174400, lat -152.108994, elev 236 ft / 72 m msl
Status: small_airport
Scheduled airline service: no
Links: Wikipedia Mobile

Weather (top)

Current conditions (rec'd 2014/07/26 04:52Z):

PATA 260452Z 36007KT 10SM SCT050 BKN080 BKN130 14/04 A2993 RMK AO2 SLP138 T01390039

Airport forecast (rec'd 2014/07/25 00:48Z):

TAF PATA 252342Z 2600/2624 31005KT P6SM BKN040 
     FM260600 34002KT P6SM BKN100 
     FM261800 25004KT P6SM BKN100

Runways (top)

07/25: 4,400 x 150 ft (1,341 x 46 m) — other (GRVL-P) — not lighted

Latest comments (top)

Memorial for what?: As I did not know him personally, I did ... [read]

More... (top)

See also NOTAMs and nearby airports and navaids, or visit the Ralph M Calhoun Memorial Airport page at the main OurAirports website..